owner,sensor,date,latitude,longitude,vertical_datum,direction_of_sea_water_velocity,sea_water_speed,upward_sea_water_velocity,qcFlag 
TABS,ioos:station:wmo:42045:1,2017-06-01T00:00:00Z,26.2168,-96.4998,2.0,233.7365067,6.61037064,-99999.0,'11133222,11111222,99999999' 
TABS,ioos:station:wmo:42045:1,2017-06-01T00:30:00Z,26.2168,-96.4998,2.0,216.0078809,4.388496326,-99999.0,'11133222,11111222,99999999' 
TABS,ioos:station:wmo:42045:1,2017-06-01T01:00:00Z,26.2168,-96.4998,2.0,266.5625279,3.3360006,-99999.0,'11133222,11111222,99999999' 
TABS,ioos:station:wmo:42045:1,2017-06-01T01:30:00Z,26.2168,-96.4998,2.0,219.6438718,0.909065454,-99999.0,'11133222,11111222,99999999' 
TABS,ioos:station:wmo:42045:1,2017-06-01T02:00:00Z,26.2168,-96.4998,2.0,225.074191,5.437655745,-99999.0,'11133222,11111222,99999999' 
TABS,ioos:station:wmo:42045:1,2017-06-01T02:30:00Z,26.2168,-96.4998,2.0,270.3181384,5.410083179,-99999.0,'11133222,11111222,99999999' 
TABS,ioos:station:wmo:42045:1,2017-06-01T03:00:00Z,26.2168,-96.4998,2.0,290.1808621,4.464045251,-99999.0,'11133222,11111222,99999999' 
TABS,ioos:station:wmo:42045:1,2017-06-01T03:30:00Z,26.2168,-96.4998,2.0,252.401602,2.381449139,-99999.0,'11133222,11111222,99999999' 
TABS,ioos:station:wmo:42045:1,2017-06-01T04:00:00Z,26.2168,-96.4998,2.0,276.5667042,1.39917833,-99999.0,'11133222,11111222,99999999' 
TABS,ioos:station:wmo:42045:1,2017-06-01T04:30:00Z,26.2168,-96.4998,2.0,267.2989561,6.36707154,-99999.0,'11133222,11111222,99999999' 
TABS,ioos:station:wmo:42045:1,2017-06-01T05:00:00Z,26.2168,-96.4998,2.0,301.6794118,5.769662035,-99999.0,'11133222,11111222,99999999' 
TABS,ioos:station:wmo:42045:1,2017-06-01T05:30:00Z,26.2168,-96.4998,2.0,297.213401,4.74523972,-99999.0,'11133222,11111222,99999999' 
TABS,ioos:station:wmo:42045:1,2017-06-01T06:00:00Z,26.2168,-96.4998,2.0,285.1629424,5.428996224,-99999.0,'11133222,11111222,99999999' 
TABS,ioos:station:wmo:42045:1,2017-06-01T06:30:00Z,26.2168,-96.4998,2.0,319.7721926,8.160012255,-99999.0,'11133222,11111222,99999999' 
TABS,ioos:station:wmo:42045:1,2017-06-01T07:00:00Z,26.2168,-96.4998,2.0,310.3281351,7.726066269,-99999.0,'11133222,11111222,99999999' 
TABS,ioos:station:wmo:42045:1,2017-06-01T07:30:00Z,26.2168,-96.4998,2.0,332.1241704,7.03651192,-99999.0,'11133222,11111222,99999999' 
TABS,ioos:station:wmo:42045:1,2017-06-01T08:00:00Z,26.2168,-96.4998,2.0,313.7859355,7.673832159,-99999.0,'11133222,11111222,99999999' 
TABS,ioos:station:wmo:42045:1,2017-06-01T08:30:00Z,26.2168,-96.4998,2.0,8.722475768,5.473298822,-99999.0,'11133222,11111222,99999999' 
TABS,ioos:station:wmo:42045:1,2017-06-01T09:00:00Z,26.2168,-96.4998,2.0,17.96719481,6.969892395,-99999.0,'11133222,11111222,99999999' 
TABS,ioos:station:wmo:42045:1,2017-06-01T09:30:00Z,26.2168,-96.4998,2.0,23.79419334,5.180318523,-99999.0,'11133222,11111222,99999999' 
TABS,ioos:station:wmo:42045:1,2017-06-01T10:00:00Z,26.2168,-96.4998,2.0,20.59038675,5.88600034,-99999.0,'11133222,11111222,99999999' 
TABS,ioos:station:wmo:42045:1,2017-06-01T10:30:00Z,26.2168,-96.4998,2.0,39.72391548,2.691337957,-99999.0,'11133222,11111222,99999999' 
TABS,ioos:station:wmo:42045:1,2017-06-01T11:00:00Z,26.2168,-96.4998,2.0,54.68886913,0.588217647,-99999.0,'11133222,11111222,99999999' 
TABS,ioos:station:wmo:42045:1,2017-06-01T11:30:00Z,26.2168,-96.4998,2.0,48.28499316,6.41693073,-99999.0,'11133222,11111222,99999999' 
TABS,ioos:station:wmo:42045:1,2017-06-01T12:00:00Z,26.2168,-96.4998,2.0,67.23644276,6.745405844,-99999.0,'11133222,11111222,99999999' 
TABS,ioos:station:wmo:42045:1,2017-06-01T12:30:00Z,26.2168,-96.4998,2.0,53.13018857,8.6,-99999.0,'11133222,11111222,99999999' 
TABS,ioos:station:wmo:42045:1,2017-06-01T13:00:00Z,26.2168,-96.4998,2.0,71.46034916,5.189306312,-99999.0,'11133222,11111222,99999999' 
TABS,ioos:station:wmo:42045:1,2017-06-01T13:30:00Z,26.2168,-96.4998,2.0,83.93753382,7.290774993,-99999.0,'11133222,11111222,99999999' 
TABS,ioos:station:wmo:42045:1,2017-06-01T14:00:00Z,26.2168,-96.4998,2.0,75.30909008,9.976141539,-99999.0,'11133222,11111222,99999999' 
TABS,ioos:station:wmo:42045:1,2017-06-01T14:30:00Z,26.2168,-96.4998,2.0,78.46355852,12.40052015,-99999.0,'11111222,11111222,99999999' 
TABS,ioos:station:wmo:42045:1,2017-06-01T15:00:00Z,26.2168,-96.4998,2.0,83.5383874,11.46281815,-99999.0,'11111222,11111222,99999999' 
TABS,ioos:station:wmo:42045:1,2017-06-01T15:30:00Z,26.2168,-96.4998,2.0,94.68835714,7.585380676,-99999.0,'11133222,11111222,99999999' 
TABS,ioos:station:wmo:42045:1,2017-06-01T16:00:00Z,26.2168,-96.4998,2.0,76.65610748,9.835537606,-99999.0,'11133222,11111222,99999999' 
TABS,ioos:station:wmo:42045:1,2017-06-01T16:30:00Z,26.2168,-96.4998,2.0,87.36385541,12.39311502,-99999.0,'11111222,11111222,99999999' 
TABS,ioos:station:wmo:42045:1,2017-06-01T17:00:00Z,26.2168,-96.4998,2.0,92.71101122,12.47396088,-99999.0,'11111222,11111222,99999999' 
TABS,ioos:station:wmo:42045:1,2017-06-01T17:30:00Z,26.2168,-96.4998,2.0,106.0660413,13.6948786,-99999.0,'11111222,11111222,99999999' 
TABS,ioos:station:wmo:42045:1,2017-06-01T18:00:00Z,26.2168,-96.4998,2.0,120.6958356,12.10621741,-99999.0,'11111222,11111222,99999999' 
TABS,ioos:station:wmo:42045:1,2017-06-01T18:30:00Z,26.2168,-96.4998,2.0,104.3271017,13.37601211,-99999.0,'11111222,11111222,99999999' 
TABS,ioos:station:wmo:42045:1,2017-06-01T19:00:00Z,26.2168,-96.4998,2.0,99.36842418,9.030448494,-99999.0,'11133222,11111222,99999999' 
TABS,ioos:station:wmo:42045:1,2017-06-01T19:30:00Z,26.2168,-96.4998,2.0,85.52698084,10.64241514,-99999.0,'11111222,11111222,99999999' 
TABS,ioos:station:wmo:42045:1,2017-06-01T20:00:00Z,26.2168,-96.4998,2.0,99.61886769,11.43070427,-99999.0,'11111222,11111222,99999999' 
TABS,ioos:station:wmo:42045:1,2017-06-01T20:30:00Z,26.2168,-96.4998,2.0,118.8390725,12.39758041,-99999.0,'11111222,11111222,99999999' 
TABS,ioos:station:wmo:42045:1,2017-06-01T21:00:00Z,26.2168,-96.4998,2.0,131.8183256,12.8679641,-99999.0,'11111222,11111222,99999999' 
TABS,ioos:station:wmo:42045:1,2017-06-01T21:30:00Z,26.2168,-96.4998,2.0,151.4726169,15.93461954,-99999.0,'11111222,11111222,99999999' 
TABS,ioos:station:wmo:42045:1,2017-06-01T22:00:00Z,26.2168,-96.4998,2.0,151.092277,14.00501696,-99999.0,'11111222,11111222,99999999' 
TABS,ioos:station:wmo:42045:1,2017-06-01T22:30:00Z,26.2168,-96.4998,2.0,154.4513136,9.83130205,-99999.0,'11133222,11111222,99999999' 
TABS,ioos:station:wmo:42045:1,2017-06-01T23:00:00Z,26.2168,-96.4998,2.0,146.4844821,11.82626315,-99999.0,'11111222,11111222,99999999' 
TABS,ioos:station:wmo:42045:1,2017-06-01T23:30:00Z,26.2168,-96.4998,2.0,149.2410539,11.9861128,-99999.0,'11111222,11111222,99999999' 
TABS,ioos:station:wmo:42045:1,2017-06-02T00:00:00Z,26.2168,-96.4998,2.0,147.8663646,13.27332664,-99999.0,'11111222,11111222,99999999' 
TABS,ioos:station:wmo:42045:1,2017-06-02T00:30:00Z,26.2168,-96.4998,2.0,156.632671,13.38806185,-99999.0,'11111222,11111222,99999999' 
TABS,ioos:station:wmo:42045:1,2017-06-02T01:00:00Z,26.2168,-96.4998,2.0,162.0826015,10.49919044,-99999.0,'11111222,11111222,99999999' 
TABS,ioos:station:wmo:42045:1,2017-06-02T01:30:00Z,26.2168,-96.4998,2.0,166.228222,15.75285688,-99999.0,'11111222,11111222,99999999' 
TABS,ioos:station:wmo:42045:1,2017-06-02T02:00:00Z,26.2168,-96.4998,2.0,184.0354333,6.536206851,-99999.0,'11133222,11111222,99999999' 
TABS,ioos:station:wmo:42045:1,2017-06-02T02:30:00Z,26.2168,-96.4998,2.0,179.9997895,14.08,-99999.0,'11111222,11111222,99999999' 
TABS,ioos:station:wmo:42045:1,2017-06-02T03:00:00Z,26.2168,-96.4998,2.0,177.8620448,15.2806348,-99999.0,'11111222,11111222,99999999' 
TABS,ioos:station:wmo:42045:1,2017-06-02T03:30:00Z,26.2168,-96.4998,2.0,182.6318044,15.89677011,-99999.0,'11111222,11111222,99999999' 
TABS,ioos:station:wmo:42045:1,2017-06-02T04:00:00Z,26.2168,-96.4998,2.0,183.71507,16.20405505,-99999.0,'11111222,11111222,99999999' 
TABS,ioos:station:wmo:42045:1,2017-06-02T04:30:00Z,26.2168,-96.4998,2.0,183.9636679,14.75529735,-99999.0,'11111222,11111222,99999999' 
TABS,ioos:station:wmo:42045:1,2017-06-02T05:00:00Z,26.2168,-96.4998,2.0,184.3430193,15.05322889,-99999.0,'11111222,11111222,99999999' 
TABS,ioos:station:wmo:42045:1,2017-06-02T05:30:00Z,26.2168,-96.4998,2.0,182.4317338,12.96167427,-99999.0,'11111222,11111222,99999999' 
TABS,ioos:station:wmo:42045:1,2017-06-02T06:00:00Z,26.2168,-96.4998,2.0,192.5400031,10.86930081,-99999.0,'11111222,11111222,99999999' 
TABS,ioos:station:wmo:42045:1,2017-06-02T06:30:00Z,26.2168,-96.4998,2.0,202.791078,11.82312987,-99999.0,'11111222,11111222,99999999' 
TABS,ioos:station:wmo:42045:1,2017-06-02T07:00:00Z,26.2168,-96.4998,2.0,209.2372171,8.824177015,-99999.0,'11133222,11111222,99999999' 
TABS,ioos:station:wmo:42045:1,2017-06-02T07:30:00Z,26.2168,-96.4998,2.0,213.6490757,11.7124976,-99999.0,'11111222,11111222,99999999' 
TABS,ioos:station:wmo:42045:1,2017-06-02T08:00:00Z,26.2168,-96.4998,2.0,229.510631,10.51897809,-99999.0,'11111222,11111222,99999999' 
TABS,ioos:station:wmo:42045:1,2017-06-02T08:30:00Z,26.2168,-96.4998,2.0,216.6031844,7.312079048,-99999.0,'11133222,11111222,99999999' 
TABS,ioos:station:wmo:42045:1,2017-06-02T09:00:00Z,26.2168,-96.4998,2.0,227.3579401,6.70197732,-99999.0,'11133222,11111222,99999999' 
TABS,ioos:station:wmo:42045:1,2017-06-02T09:30:00Z,26.2168,-96.4998,2.0,251.3373109,4.781401468,-99999.0,'11133222,11111222,99999999' 
TABS,ioos:station:wmo:42045:1,2017-06-02T10:00:00Z,26.2168,-96.4998,2.0,277.7451134,5.046028141,-99999.0,'11133222,11111222,99999999' 
TABS,ioos:station:wmo:42045:1,2017-06-02T10:30:00Z,26.2168,-96.4998,2.0,300.8689823,3.098983704,-99999.0,'11133222,11111222,99999999' 
TABS,ioos:station:wmo:42045:1,2017-06-02T11:00:00Z,26.2168,-96.4998,2.0,346.7597215,1.921067412,-99999.0,'11133222,11111222,99999999' 
TABS,ioos:station:wmo:42045:1,2017-06-02T11:30:00Z,26.2168,-96.4998,2.0,336.5873383,6.669100389,-99999.0,'11133222,11111222,99999999' 
TABS,ioos:station:wmo:42045:1,2017-06-02T12:00:00Z,26.2168,-96.4998,2.0,359.2893828,4.030310162,-99999.0,'11133222,11144222,99999999' 
TABS,ioos:station:wmo:42045:1,2017-06-02T12:30:00Z,26.2168,-96.4998,2.0,20.6277973,5.620320276,-99999.0,'11133222,11111222,99999999' 
TABS,ioos:station:wmo:42045:1,2017-06-02T13:00:00Z,26.2168,-96.4998,2.0,41.01145658,8.335766312,-99999.0,'11133222,11111222,99999999' 
TABS,ioos:station:wmo:42045:1,2017-06-02T13:30:00Z,26.2168,-96.4998,2.0,30.96389458,9.037975437,-99999.0,'11133222,11111222,99999999' 
TABS,ioos:station:wmo:42045:1,2017-06-02T14:00:00Z,26.2168,-96.4998,2.0,46.95754892,11.17881031,-99999.0,'11111222,11111222,99999999' 
TABS,ioos:station:wmo:42045:1,2017-06-02T14:30:00Z,26.2168,-96.4998,2.0,48.74774144,11.35921212,-99999.0,'11111222,11111222,99999999' 
TABS,ioos:station:wmo:42045:1,2017-06-02T15:00:00Z,26.2168,-96.4998,2.0,66.07598956,15.14084542,-99999.0,'11111222,11111222,99999999' 
TABS,ioos:station:wmo:42045:1,2017-06-02T15:30:00Z,26.2168,-96.4998,2.0,64.4800448,19.12603461,-99999.0,'11111222,11111222,99999999' 
TABS,ioos:station:wmo:42045:1,2017-06-02T16:00:00Z,26.2168,-96.4998,2.0,73.48307746,17.76297835,-99999.0,'11111222,11111222,99999999' 
TABS,ioos:station:wmo:42045:1,2017-06-02T16:30:00Z,26.2168,-96.4998,2.0,83.54222258,20.98313847,-99999.0,'11111222,11111222,99999999' 
TABS,ioos:station:wmo:42045:1,2017-06-02T17:00:00Z,26.2168,-96.4998,2.0,90.66202903,20.77138657,-99999.0,'11111222,11111222,99999999' 
TABS,ioos:station:wmo:42045:1,2017-06-02T17:30:00Z,26.2168,-96.4998,2.0,91.18386449,19.84423594,-99999.0,'11111222,11111222,99999999' 
TABS,ioos:station:wmo:42045:1,2017-06-02T18:00:00Z,26.2168,-96.4998,2.0,100.1572317,25.34725626,-99999.0,'11111222,11111222,99999999' 
TABS,ioos:station:wmo:42045:1,2017-06-02T18:30:00Z,26.2168,-96.4998,2.0,113.470683,27.09144884,-99999.0,'11111222,11111222,99999999' 
TABS,ioos:station:wmo:42045:1,2017-06-02T19:00:00Z,26.2168,-96.4998,2.0,109.1362011,29.71182425,-99999.0,'11111222,11111222,99999999' 
TABS,ioos:station:wmo:42045:1,2017-06-02T19:30:00Z,26.2168,-96.4998,2.0,113.1855222,28.90448581,-99999.0,'11111222,11111222,99999999' 
TABS,ioos:station:wmo:42045:1,2017-06-02T20:00:00Z,26.2168,-96.4998,2.0,113.8728195,28.56375325,-99999.0,'11111222,11111222,99999999' 
TABS,ioos:station:wmo:42045:1,2017-06-02T20:30:00Z,26.2168,-96.4998,2.0,121.5888793,32.37743041,-99999.0,'11111222,11111222,99999999' 
TABS,ioos:station:wmo:42045:1,2017-06-02T21:00:00Z,26.2168,-96.4998,2.0,122.4766618,31.69712921,-99999.0,'11111222,11111222,99999999' 
TABS,ioos:station:wmo:42045:1,2017-06-02T21:30:00Z,26.2168,-96.4998,2.0,132.4416569,32.79293979,-99999.0,'11111222,11111222,99999999' 
TABS,ioos:station:wmo:42045:1,2017-06-02T22:00:00Z,26.2168,-96.4998,2.0,137.0650065,33.75091406,-99999.0,'11111222,11111222,99999999' 
TABS,ioos:station:wmo:42045:1,2017-06-02T22:30:00Z,26.2168,-96.4998,2.0,141.277788,33.04326406,-99999.0,'11111222,11111222,99999999' 
TABS,ioos:station:wmo:42045:1,2017-06-02T23:00:00Z,26.2168,-96.4998,2.0,150.3535367,32.44753458,-99999.0,'11111222,11111222,99999999' 
TABS,ioos:station:wmo:42045:1,2017-06-02T23:30:00Z,26.2168,-96.4998,2.0,159.9624364,33.35926408,-99999.0,'11111222,11111222,99999999' 
TABS,ioos:station:wmo:42045:1,2017-06-03T00:00:00Z,26.2168,-96.4998,2.0,168.323079,30.63396807,-99999.0,'11111222,11111222,99999999' 
TABS,ioos:station:wmo:42045:1,2017-06-03T00:30:00Z,26.2168,-96.4998,2.0,173.2045862,32.53857096,-99999.0,'11111222,11111222,99999999' 
TABS,ioos:station:wmo:42045:1,2017-06-03T01:00:00Z,26.2168,-96.4998,2.0,179.0493849,30.14414703,-99999.0,'11111222,11111222,99999999' 
TABS,ioos:station:wmo:42045:1,2017-06-03T01:30:00Z,26.2168,-96.4998,2.0,188.3473995,28.30993112,-99999.0,'11111222,11111222,99999999' 
TABS,ioos:station:wmo:42045:1,2017-06-03T02:00:00Z,26.2168,-96.4998,2.0,196.0216023,17.49975143,-99999.0,'11111222,11111222,99999999' 
TABS,ioos:station:wmo:42045:1,2017-06-03T02:30:00Z,26.2168,-96.4998,2.0,202.7308551,25.75004854,-99999.0,'11111222,11111222,99999999' 
TABS,ioos:station:wmo:42045:1,2017-06-03T03:00:00Z,26.2168,-96.4998,2.0,208.3642229,31.04746205,-99999.0,'11111222,11111222,99999999' 
TABS,ioos:station:wmo:42045:1,2017-06-03T03:30:00Z,26.2168,-96.4998,2.0,218.2295129,30.59061621,-99999.0,'11111222,11111222,99999999' 
TABS,ioos:station:wmo:42045:1,2017-06-03T04:00:00Z,26.2168,-96.4998,2.0,218.089341,28.09236551,-99999.0,'11111222,11111222,99999999' 
TABS,ioos:station:wmo:42045:1,2017-06-03T04:30:00Z,26.2168,-96.4998,2.0,220.2217287,28.18422254,-99999.0,'11111222,11111222,99999999' 
TABS,ioos:station:wmo:42045:1,2017-06-03T05:00:00Z,26.2168,-96.4998,2.0,222.9971559,24.28273461,-99999.0,'11111222,11111222,99999999' 
TABS,ioos:station:wmo:42045:1,2017-06-03T05:30:00Z,26.2168,-96.4998,2.0,234.6245536,26.22092294,-99999.0,'11111222,11111222,99999999' 
TABS,ioos:station:wmo:42045:1,2017-06-03T06:00:00Z,26.2168,-96.4998,2.0,230.4146762,18.95728092,-99999.0,'11111222,11111222,99999999' 
TABS,ioos:station:wmo:42045:1,2017-06-03T06:30:00Z,26.2168,-96.4998,2.0,232.7407425,21.20848887,-99999.0,'11111222,11111222,99999999' 
TABS,ioos:station:wmo:42045:1,2017-06-03T07:00:00Z,26.2168,-96.4998,2.0,243.2555883,17.17755803,-99999.0,'11111222,11111222,99999999' 
TABS,ioos:station:wmo:42045:1,2017-06-03T07:30:00Z,26.2168,-96.4998,2.0,252.3384236,15.68949011,-99999.0,'11111222,11111222,99999999' 
TABS,ioos:station:wmo:42045:1,2017-06-03T08:00:00Z,26.2168,-96.4998,2.0,261.1596532,13.47000371,-99999.0,'11111222,11111222,99999999' 
TABS,ioos:station:wmo:42045:1,2017-06-03T08:30:00Z,26.2168,-96.4998,2.0,261.2826489,7.456124999,-99999.0,'11133222,11111222,99999999' 
TABS,ioos:station:wmo:42045:1,2017-06-03T09:00:00Z,26.2168,-96.4998,2.0,273.1898016,13.30060149,-99999.0,'11111222,11111222,99999999' 
TABS,ioos:station:wmo:42045:1,2017-06-03T09:30:00Z,26.2168,-96.4998,2.0,287.7225621,10.67667551,-99999.0,'11111222,11111222,99999999' 
TABS,ioos:station:wmo:42045:1,2017-06-03T10:00:00Z,26.2168,-96.4998,2.0,332.1913618,11.12482359,-99999.0,'11111222,11111222,99999999' 
TABS,ioos:station:wmo:42045:1,2017-06-03T10:30:00Z,26.2168,-96.4998,2.0,342.4936945,12.1004628,-99999.0,'11111222,11111222,99999999' 
TABS,ioos:station:wmo:42045:1,2017-06-03T11:00:00Z,26.2168,-96.4998,2.0,351.382474,8.141922377,-99999.0,'11133222,11111222,99999999' 
TABS,ioos:station:wmo:42045:1,2017-06-03T11:30:00Z,26.2168,-96.4998,2.0,6.84839445,12.5797496,-99999.0,'11111222,11111222,99999999' 
TABS,ioos:station:wmo:42045:1,2017-06-03T12:00:00Z,26.2168,-96.4998,2.0,2.233566664,13.60033088,-99999.0,'11111222,11111222,99999999' 
TABS,ioos:station:wmo:42045:1,2017-06-03T12:30:00Z,26.2168,-96.4998,2.0,22.42658758,14.8100844,-99999.0,'11111222,11111222,99999999' 
TABS,ioos:station:wmo:42045:1,2017-06-03T13:00:00Z,26.2168,-96.4998,2.0,29.23153097,16.05446044,-99999.0,'11111222,11111222,99999999' 
TABS,ioos:station:wmo:42045:1,2017-06-03T13:30:00Z,26.2168,-96.4998,2.0,40.09348335,15.29419825,-99999.0,'11111222,11111222,99999999' 
TABS,ioos:station:wmo:42045:1,2017-06-03T14:00:00Z,26.2168,-96.4998,2.0,48.91275736,15.85493299,-99999.0,'11111222,11111222,99999999' 
TABS,ioos:station:wmo:42045:1,2017-06-03T14:30:00Z,26.2168,-96.4998,2.0,60.30276611,17.92426568,-99999.0,'11111222,11111222,99999999' 
TABS,ioos:station:wmo:42045:1,2017-06-03T15:00:00Z,26.2168,-96.4998,2.0,68.01915499,18.96887187,-99999.0,'11111222,11111222,99999999' 
TABS,ioos:station:wmo:42045:1,2017-06-03T15:30:00Z,26.2168,-96.4998,2.0,72.48778479,17.2809259,-99999.0,'11111222,11111222,99999999' 
TABS,ioos:station:wmo:42045:1,2017-06-03T16:00:00Z,26.2168,-96.4998,2.0,74.34373833,20.41753413,-99999.0,'11111222,11111222,99999999' 
TABS,ioos:station:wmo:42045:1,2017-06-03T16:30:00Z,26.2168,-96.4998,2.0,77.40259381,21.73319351,-99999.0,'11111222,11111222,99999999' 
TABS,ioos:station:wmo:42045:1,2017-06-03T17:00:00Z,26.2168,-96.4998,2.0,84.89557995,22.47914812,-99999.0,'11111222,11111222,99999999' 
TABS,ioos:station:wmo:42045:1,2017-06-03T17:30:00Z,26.2168,-96.4998,2.0,90.90427568,28.51355116,-99999.0,'11111222,11111222,99999999' 
TABS,ioos:station:wmo:42045:1,2017-06-03T18:00:00Z,26.2168,-96.4998,2.0,89.4905301,26.99106704,-99999.0,'11111222,11111222,99999999' 
TABS,ioos:station:wmo:42045:1,2017-06-03T18:30:00Z,26.2168,-96.4998,2.0,96.01871732,27.75298362,-99999.0,'11111222,11111222,99999999' 
TABS,ioos:station:wmo:42045:1,2017-06-03T19:00:00Z,26.2168,-96.4998,2.0,103.1552985,26.18724117,-99999.0,'11111222,11111222,99999999' 
TABS,ioos:station:wmo:42045:1,2017-06-03T19:30:00Z,26.2168,-96.4998,2.0,107.3499178,25.21736108,-99999.0,'11111222,11111222,99999999' 
TABS,ioos:station:wmo:42045:1,2017-06-03T20:00:00Z,26.2168,-96.4998,2.0,112.8088947,25.87321781,-99999.0,'11111222,11111222,99999999' 
TABS,ioos:station:wmo:42045:1,2017-06-03T20:30:00Z,26.2168,-96.4998,2.0,123.0089524,25.90078184,-99999.0,'11111222,11111222,99999999' 
TABS,ioos:station:wmo:42045:1,2017-06-03T21:00:00Z,26.2168,-96.4998,2.0,127.4448437,25.70729468,-99999.0,'11111222,11111222,99999999' 
TABS,ioos:station:wmo:42045:1,2017-06-03T21:30:00Z,26.2168,-96.4998,2.0,125.7796948,25.86068058,-99999.0,'11111222,11111222,99999999' 
TABS,ioos:station:wmo:42045:1,2017-06-03T22:00:00Z,26.2168,-96.4998,2.0,127.7779203,24.35505902,-99999.0,'11111222,11111222,99999999' 
TABS,ioos:station:wmo:42045:1,2017-06-03T22:30:00Z,26.2168,-96.4998,2.0,136.6181579,26.54123207,-99999.0,'11111222,11111222,99999999' 
TABS,ioos:station:wmo:42045:1,2017-06-03T23:00:00Z,26.2168,-96.4998,2.0,140.9725225,25.07577516,-99999.0,'11111222,11111222,99999999' 
TABS,ioos:station:wmo:42045:1,2017-06-03T23:30:00Z,26.2168,-96.4998,2.0,145.2887099,24.90167263,-99999.0,'11111222,11111222,99999999' 
TABS,ioos:station:wmo:42045:1,2017-06-04T00:00:00Z,26.2168,-96.4998,2.0,150.2549778,26.68607315,-99999.0,'11111222,11111222,99999999' 
TABS,ioos:station:wmo:42045:1,2017-06-04T00:30:00Z,26.2168,-96.4998,2.0,153.6757058,25.52717767,-99999.0,'11111222,11111222,99999999' 
TABS,ioos:station:wmo:42045:1,2017-06-04T01:00:00Z,26.2168,-96.4998,2.0,169.9828327,25.81349453,-99999.0,'11111222,11111222,99999999' 
TABS,ioos:station:wmo:42045:1,2017-06-04T01:30:00Z,26.2168,-96.4998,2.0,173.6867901,23.28117695,-99999.0,'11111222,11111222,99999999' 
TABS,ioos:station:wmo:42045:1,2017-06-04T02:00:00Z,26.2168,-96.4998,2.0,181.0765566,23.41413462,-99999.0,'11111222,11111222,99999999' 
TABS,ioos:station:wmo:42045:1,2017-06-04T02:30:00Z,26.2168,-96.4998,2.0,199.1471867,21.6158391,-99999.0,'11111222,11111222,99999999' 
TABS,ioos:station:wmo:42045:1,2017-06-04T03:00:00Z,26.2168,-96.4998,2.0,205.1022838,19.80012374,-99999.0,'11111222,11111222,99999999' 
TABS,ioos:station:wmo:42045:1,2017-06-04T03:30:00Z,26.2168,-96.4998,2.0,198.1243427,18.09798055,-99999.0,'11111222,11111222,99999999' 
TABS,ioos:station:wmo:42045:1,2017-06-04T04:00:00Z,26.2168,-96.4998,2.0,212.4378316,19.92958856,-99999.0,'11111222,11111222,99999999' 
TABS,ioos:station:wmo:42045:1,2017-06-04T04:30:00Z,26.2168,-96.4998,2.0,226.4896975,9.789668023,-99999.0,'11133222,11111222,99999999' 
TABS,ioos:station:wmo:42045:1,2017-06-04T05:00:00Z,26.2168,-96.4998,2.0,218.2791605,11.05734597,-99999.0,'11111222,11111222,99999999' 
TABS,ioos:station:wmo:42045:1,2017-06-04T05:30:00Z,26.2168,-96.4998,2.0,230.4381246,10.22127683,-99999.0,'11111222,11111222,99999999' 
TABS,ioos:station:wmo:42045:1,2017-06-04T06:00:00Z,26.2168,-96.4998,2.0,224.3411427,7.997905976,-99999.0,'11133222,11111222,99999999' 
TABS,ioos:station:wmo:42045:1,2017-06-04T06:30:00Z,26.2168,-96.4998,2.0,254.1422515,6.25815468,-99999.0,'11133222,11111222,99999999' 
TABS,ioos:station:wmo:42045:1,2017-06-04T07:00:00Z,26.2168,-96.4998,2.0,252.6406447,6.904469567,-99999.0,'11133222,11111222,99999999' 
TABS,ioos:station:wmo:42045:1,2017-06-04T07:30:00Z,26.2168,-96.4998,2.0,266.2114338,10.29248755,-99999.0,'11111222,11111222,99999999' 
TABS,ioos:station:wmo:42045:1,2017-06-04T08:00:00Z,26.2168,-96.4998,2.0,279.6675506,8.277541906,-99999.0,'11133222,11111222,99999999' 
TABS,ioos:station:wmo:42045:1,2017-06-04T08:30:00Z,26.2168,-96.4998,2.0,336.3629159,4.115264269,-99999.0,'11133222,11111222,99999999' 
TABS,ioos:station:wmo:42045:1,2017-06-04T09:00:00Z,26.2168,-96.4998,2.0,288.8968466,2.74810844,-99999.0,'11133222,11111222,99999999' 
TABS,ioos:station:wmo:42045:1,2017-06-04T09:30:00Z,26.2168,-96.4998,2.0,322.0218937,4.858909343,-99999.0,'11133222,11111222,99999999' 
TABS,ioos:station:wmo:42045:1,2017-06-04T10:00:00Z,26.2168,-96.4998,2.0,341.7940287,6.337254926,-99999.0,'11133222,11111222,99999999' 
TABS,ioos:station:wmo:42045:1,2017-06-04T10:30:00Z,26.2168,-96.4998,2.0,331.2523634,7.984084168,-99999.0,'11133222,11111222,99999999' 
TABS,ioos:station:wmo:42045:1,2017-06-04T11:00:00Z,26.2168,-96.4998,2.0,7.315718656,4.476438316,-99999.0,'11133222,11111222,99999999' 
TABS,ioos:station:wmo:42045:1,2017-06-04T11:30:00Z,26.2168,-96.4998,2.0,25.44464518,9.147267352,-99999.0,'11133222,11111222,99999999' 
TABS,ioos:station:wmo:42045:1,2017-06-04T12:00:00Z,26.2168,-96.4998,2.0,18.78673539,19.06573104,-99999.0,'11111222,11111222,99999999' 
TABS,ioos:station:wmo:42045:1,2017-06-04T12:30:00Z,26.2168,-96.4998,2.0,27.6733875,15.95509323,-99999.0,'11111222,11111222,99999999' 
TABS,ioos:station:wmo:42045:1,2017-06-04T13:00:00Z,26.2168,-96.4998,2.0,27.70092569,19.40393774,-99999.0,'11111222,11111222,99999999' 
TABS,ioos:station:wmo:42045:1,2017-06-04T13:30:00Z,26.2168,-96.4998,2.0,39.87510825,21.13506328,-99999.0,'11111222,11111222,99999999' 
TABS,ioos:station:wmo:42045:1,2017-06-04T14:00:00Z,26.2168,-96.4998,2.0,41.99872311,22.41775189,-99999.0,'11111222,11111222,99999999' 
TABS,ioos:station:wmo:42045:1,2017-06-04T14:30:00Z,26.2168,-96.4998,2.0,52.41203564,21.54169213,-99999.0,'11111222,11111222,99999999' 
TABS,ioos:station:wmo:42045:1,2017-06-04T15:00:00Z,26.2168,-96.4998,2.0,56.79664755,22.20544978,-99999.0,'11111222,11111222,99999999' 
TABS,ioos:station:wmo:42045:1,2017-06-04T15:30:00Z,26.2168,-96.4998,2.0,64.43280229,21.57238281,-99999.0,'11111222,11111222,99999999' 
TABS,ioos:station:wmo:42045:1,2017-06-04T16:00:00Z,26.2168,-96.4998,2.0,66.95524213,25.92917469,-99999.0,'11111222,11111222,99999999' 